Location: Oshawa
(43.9000°N, 78.8670°W)
Time: 12:25:28
(UTC-04:00)

Thor Agena Rocket - Visible Passes

Search period start: 02 August 2015 00:00
Search period end: 12 August 2015 00:00
Orbit: 760 x 809 km, 99.1° (Epoch: 01 August)

Date Brightness Start Highest point End Pass type
(mag) Time Alt. Az. Time Alt. Az. Time Alt. Az.
02 Aug 6.1 02:00:36 10° E 02:03:00 14° ENE 02:05:38 10° NNE visible
02 Aug 3.4 03:39:14 31° SSE 03:41:42 87° W 03:46:50 10° NNW visible
02 Aug 5.4 05:21:01 10° W 05:21:56 10° W 05:22:30 10° W visible
03 Aug 4.2 03:07:48 23° SE 03:10:38 50° ENE 03:15:35 10° N visible
03 Aug 4.8 04:48:25 17° WSW 04:50:19 21° W 04:54:04 10° NW visible
04 Aug 5.3 02:36:22 14° ESE 02:39:44 27° ENE 02:44:02 10° N visible
04 Aug 4.0 04:16:59 29° SW 04:18:55 40° W 04:23:42 10° NNW visible
05 Aug 6.1 02:06:10 10° E 02:08:57 15° ENE 02:11:56 10° NNE visible
05 Aug 3.4 03:45:32 35° S 03:47:42 78° WSW 03:52:50 10° NNW visible
06 Aug 4.1 03:14:06 28° SE 03:16:38 55° ENE 03:21:39 10° N visible
06 Aug 4.9 04:54:42 16° WSW 04:56:24 19° W 04:59:53 10° NW visible
07 Aug 5.1 02:42:39 17° ESE 02:45:42 30° ENE 02:50:10 10° N visible
07 Aug 4.1 04:23:17 28° SW 04:24:57 36° W 04:29:39 10° NNW visible
08 Aug 6.0 02:11:46 10° E 02:14:53 17° ENE 02:18:12 10° NNE visible
08 Aug 3.4 03:51:51 39° S 03:53:43 70° WSW 03:58:51 10° NNW visible
09 Aug 3.9 03:20:24 32° SE 03:22:37 62° ENE 03:27:43 10° N visible
09 Aug 5.0 05:01:01 15° WSW 05:02:30 17° W 05:05:40 10° NW visible
10 Aug 5.0 02:48:58 20° ESE 02:51:40 33° ENE 02:56:16 10° N visible
10 Aug 4.3 04:29:35 28° SW 04:31:00 32° W 04:35:35 10° NNW visible
11 Aug 5.8 02:17:32 10° ESE 02:20:50 19° ENE 02:24:26 10° NNE visible
11 Aug 3.5 03:58:10 42° SSW 03:59:43 62° WSW 04:04:51 10° NNW visible
